Regional Weather Roundup
Issued by NWS

Home | Current Version | Previous Version | Text Only | Print | Product List | Glossary On
Versions: 1 2 3 4 5 6 7 8 9 10 11 12 13 14 15 16 17 18 19 20 21 22 23 24 25 26 27 28 29 30 31 32 33 34 35 36 37 38 39 40 41 42 43 44 45 46 47 48 49 50
000
ASUS44 KFWD 300810
RWRTX
NORTH TEXAS HOURLY WEATHER ROUNDUP
NATIONAL WEATHER SERVICE FORT WORTH TX
300 AM CDT WED JUL 30 2014

NOTE: "FAIR" INDICATES FEW OR NO CLOUDS BELOW 12,000 FEET WITH NO
SIGNIFICANT WEATHER AND/OR OBSTRUCTIONS TO VISIBILITY.

TXZ118-119-300900-
DALLAS/FORT WORTH METROPLEX

CITY           SKY/WX    TMP DP  RH WIND       PRES   REMARKS
DFW AIRPORT    MOCLDY    75  65  70 E6        30.02F
DALLAS LOVE    MOCLDY    77  65  66 E7        30.02F
FTW MEACHAM    PTCLDY    76  64  66 E5        30.02F
DAL-EXECUTIVE  PTCLDY    73  65  75 SE3       30.03F
FTW-ALLIANCE   MOCLDY    72  63  73 CALM      30.02F
FTW-NAS-JRB    CLEAR     78  61  55 SE6       30.07F
FTW-SPINKS     CLEAR     70  64  82 CALM      30.04F
ARLINGTON      PTCLDY    72  64  76 SE6       30.03F
GRAND PRAIRIE  PTCLDY    75  63  66 E3        30.04F
ADDISON        MOCLDY    79  64  60 SE6       30.05F
MESQUITE       PTCLDY    71  67  87 E5        30.03F
LANCASTER      PTCLDY    70  65  84 CALM      30.04F
$$

TXZ091>094-102>105-117-120-121-131>134-300900-
NORTH CENTRAL TEXAS

CITY           SKY/WX    TMP DP  RH WIND       PRES   REMARKS
SHRMAN/DENISON CLOUDY    74  65  74 CALM      30.06S
GAINESVILLE    CLOUDY    72  62  70 NE3       30.07S
BOWIE          CLOUDY    71  64  81 CALM      30.03F
BRIDGEPORT     MOCLDY    69  67  95 CALM      30.05F
DECATUR        MOCLDY    74  60  60 SE5       30.04F
DENTON         MOCLDY    71  66  84 CALM      30.03F
MCKINNEY       MOCLDY    71  66  84 CALM      30.04F
GREENVILLE     PTCLDY    73  64  73 SE5       30.04F
ROCKWALL       PTCLDY    74  67  78 SE3       30.03F
TERRELL        CLEAR     74  68  81 CALM      30.05S
WAXAHACHIE     CLEAR     73  64  75 CALM      30.05S
CLEBURNE       PTCLDY    75  68  78 SE8       30.05F
GRANBURY       MOCLDY    76  63  63 SE7       30.05S
$$

TXZ083>090-098>101-113>116-127>130-139>142-154-155-300900-
WESTERN NORTH TEXAS

CITY           SKY/WX    TMP DP  RH WIND       PRES   REMARKS
WICHITA FALLS  LGT RAIN  72  67  84 SW7       30.04R
WF-KICKAPOO    CLOUDY    73  65  75 CALM      30.06R
VERNON         CLOUDY    71  68  90 E6        30.07F
ABILENE        PTCLDY    75  67  76 S14       30.04F
ABILENE-DYESS  PTCLDY    73  68  83 S9        30.03F
BRECKENRIDGE   MOCLDY    80  56  44 SE9       30.03S
GRAHAM         CLOUDY    76  60  58 SE3       30.02R
MINERAL WELLS  MOCLDY    73  64  73 SE8       30.02F
STEPHENVILLE   MOCLDY    74  59  58 SE6       30.08F
COMANCHE       CLOUDY    74  62  66 SE6       30.05F
BROWNWOOD      CLOUDY    77  68  73 SE9G16    30.05F
COLEMAN        MOCLDY    77  67  70 SE8       30.05F
BRADY          CLEAR     77  66  69 SE10      30.05S
$$

TXZ143>147-156>162-174-175-300900-
CENTRAL TEXAS

CITY           SKY/WX    TMP DP  RH WIND       PRES   REMARKS
WACO           PTCLDY    74  68  81 SE7       30.04R
WACO-MCGREGOR  PTCLDY    73  64  73 S6        30.06S
HILLSBORO      CLEAR     74  66  75 E7        30.04S
CORSICANA      PTCLDY    75  70  84 SE5       30.05F
MEXIA          PTCLDY    72  70  91 E3        30.04S
HEARNE         CLEAR    N/A N/A N/A CALM      30.05S
CAMERON        CLEAR     75  72  89 SE3       30.05S
TEMPLE         CLEAR     75  66  73 SE7       30.05S
KILLEEN        PTCLDY    75  72  88 SE8       30.04F
KILLEEN-SKYLRK CLEAR     75  66  73 SE7       30.05S
FORT HOOD      CLEAR     78  71  79 E5        30.05F
GATESVILLE     PTCLDY    73  70  88 SE3       30.07S
HAMILTON       MOCLDY    75  66  75 MISG      30.07S
LAMPASAS       CLEAR     76  73  91 CALM      30.04F
$$

TXZ095>097-106>112-122>126-135>138-148>153-164>167-300900-
EAST TEXAS

CITY           SKY/WX    TMP DP  RH WIND       PRES   REMARKS
PARIS          MOCLDY    73  63  68 SE7       30.06S
SULPHUR SPRNGS PTCLDY    77  64  65 SE7       30.07S
CLARKSVILLE    MOCLDY    74  65  74 SE3       30.06S
MOUNT PLEASANT PTCLDY    72  65  80 CALM      30.07S
GILMER         PTCLDY    73  68  83 S3        30.08S
MINEOLA        PTCLDY    73  66  78 SE3       30.06S
TYLER          CLEAR     76  66  71 SE9       30.06S
LONGVIEW       CLEAR     74  65  73 SE9       30.06S
MARSHALL       CLEAR     74  67  79 E6        30.08F
ATHENS         CLEAR     72  70  94 CALM      30.04F
JACKSONVILLE   CLEAR     75  66  71 SE5       30.09S
HENDERSON      CLEAR     74  65  74 SE6       30.08S
NACOGDOCHES    CLEAR     73  66  78 E7        30.06F
LUFKIN         CLEAR     75  70  84 E3        30.05S
$$

SUPPLEMENTAL OBSERVATIONS (CENTRAL)

CITY           SKY/WX    TMP DP  RH WIND       PRES   REMARKS
CADDO GRASSLND   N/A     73  68  83 SE2         N/A
PAT MAYSE LAKE   N/A     75  64  69 SE12        N/A
PALESTINE        N/A     73  72  94 CALM        N/A
MCGREGOR         N/A     75  68  78 SE6         N/A
TEMPLE           N/A     73  68  83 SE5         N/A
$$

SUPPLEMENTAL OBSERVATIONS (WEST)

CITY           SKY/WX    TMP DP  RH WIND       PRES   REMARKS
MILLERS CREEK    N/A     75  63  64 SE6         N/A
POSSUM KINGDOM   N/A     77  55  47 SE8         N/A
LBJ GRASSLAND    N/A     75  59  57 SE6         N/A
GRANBURY         N/A     75  63  64 SE8         N/A
HAMBY            N/A     75  64  69 S10         N/A
COLORADO BEND    N/A     75  68  78 SE5         N/A
$$

SUPPLEMENTAL OBSERVATIONS (EAST)

CITY           SKY/WX    TMP DP  RH WIND       PRES   REMARKS
CLARKSVILLE      N/A     73  66  78 SE6         N/A
TEXARKANA        N/A     66  63  88 CALM        N/A
LINDEN           N/A     72  64  78 E2          N/A
GILMER           N/A     72  64  78 S1          N/A
HENDERSON        N/A     73  64  73 CALM        N/A
N SABINE NF      N/A     72  66  83 MISG        N/A
S SABINE NF      N/A     75  66  73 E5          N/A
$$

SUPPLEMENTAL OBSERVATIONS ARE A COLLECTION OF AUTOMATED INSTRUMENTS
THAT ARE MAINTAINED BY A VARIETY OF FEDERAL AND STATE AGENCIES.
CERTAIN ELEMENTS...SUCH AS HUMIDITY VALUES AND SUSTAINED WIND
SPEEDS...MAY BE APPROXIMATED.




USA.gov is the U.S. government's official web portal to all federal, state and local government web resources and services.